{"data":{"norad_id":52119,"epoch":"2026-09-19T17:41:14.953632Z","epoch_age_seconds":122180,"freshness":"FRESH","line1":"1 52119U 22029AH  26262.73697863  .00001382  00000+0  52058-4 0  9997","line2":"2 52119  53.1584 271.2329 0001241  88.6877 271.4268 15.34388802250317","mean_motion":15.34388802,"eccentricity":0.0001241,"inclination_deg":53.1584,"raan_deg":271.2329,"arg_perigee_deg":88.6877,"mean_anomaly_deg":271.4268,"bstar":5.2058e-5,"rev_number":25031,"period_min":93.84844298414,"perigee_km":461.88757082116,"apogee_km":463.58547562962,"semimajor_km":6840.8735232254,"source":"CELESTRAK","updated_at":"2026-09-20T09:00:39.989469Z"}}